Weather History for Topcliffe RAF, United Kingdom

Change the Weather History Date:

Thursday, September 19, 2013

  Actual Average Record
Temperature  
Mean Temperature 48 °F -  
Max Temperature 60 °F 58 °F - ()
Min Temperature 37 °F 44 °F - ()
Degree Days  
Heating Degree Days 16    
Moisture  
Dew Point 48 °F    
Average Humidity 92    
Maximum Humidity 100    
Minimum Humidity 72    
Precipitation  
Precipitation 0.00 in - - ()
Sea Level Pressure  
Sea Level Pressure 29.69 in    
Wind  
Wind Speed 7 mph ()    
Max Wind Speed 17 mph    
Max Gust Speed -    
Visibility 6.1 miles    
Events Rain    
T = Trace of Precipitation, MM = Missing Value Source: Averaged Metar Reports

Daily Weather History Graph

Daily Weather History Graph

Search for Another Location

Airport:

Trip Planner

Search our weather history database for the weather conditions in past years. The results will help you decide how hot, cold, wet, or windy it might be!

Date:

Astronomy

Sep. 19, 2013 Rise Set
Actual Time 6:45 AM BST 7:11 PM BST
Civil Twilight 6:10 AM BST 7:47 PM BST
Nautical Twilight 5:27 AM BST 8:29 PM BST
Astronomical Twilight 4:42 AM BST 9:14 PM BST
Moon 6:50 PM BST (9/19) 6:44 AM BST (9/19)
Length of Visible Light 13h 36m
Length of Day
12h 25m
Full, 100% of the Moon is Illuminated
Sep 19
Full
Sep 19
Full
Sep 27
Last Quarter
Oct 5
New
Oct 12
First Quarter

Hourly Weather History & Observations

Time (BST) Temp. Windchill Dew Point Humidity Pressure Visibility Wind Dir Wind Speed Gust Speed Precip Events Conditions
12:50 AM 41.0 °F 38.0 °F 39.2 °F 93% 29.77 in 6.2 mi SSE 4.6 mph - N/A   Unknown
1:50 AM 42.8 °F 39.3 °F 41.0 °F 93% 29.77 in 6.2 mi SW 5.8 mph - N/A   Unknown
2:50 AM 39.2 °F - 39.2 °F 100% 29.77 in 6.2 mi NE 2.3 mph - N/A   Unknown
3:50 AM 37.4 °F - 37.4 °F 100% 29.77 in 6.2 mi ESE 2.3 mph - N/A   Mostly Cloudy
4:50 AM 39.2 °F - 39.2 °F 100% 29.77 in 6.2 mi East 2.3 mph - N/A   Mostly Cloudy
5:50 AM 41.0 °F - 41.0 °F 100% 29.77 in 6.2 mi East 2.3 mph - N/A   Mostly Cloudy
6:50 AM 42.8 °F 39.3 °F 42.8 °F 100% 29.74 in 6.2 mi SSE 5.8 mph - N/A   Mostly Cloudy
7:50 AM 46.4 °F 42.9 °F 46.4 °F 100% 29.74 in 6.2 mi SE 6.9 mph - N/A Rain Rain Showers
8:50 AM 48.2 °F - 48.2 °F 100% 29.68 in 6.2 mi SSE 11.5 mph - N/A Rain Rain
9:50 AM 50.0 °F - 50.0 °F 100% 29.68 in 6.2 mi SSE 12.7 mph - N/A Rain Rain
10:50 AM 50.0 °F - 50.0 °F 100% 29.65 in 6.2 mi SSE 11.5 mph - N/A Rain Rain
11:50 AM 51.8 °F - 51.8 °F 100% 29.62 in 6.2 mi SE 17.3 mph - N/A   Mostly Cloudy
12:50 PM 53.6 °F - 53.6 °F 100% 29.59 in 4.3 mi SSE 16.1 mph - N/A   Scattered Clouds
1:50 PM 55.4 °F - 55.4 °F 100% 29.59 in 6.2 mi South 11.5 mph - N/A   Mostly Cloudy
2:50 PM 57.2 °F - 57.2 °F 100% 29.59 in 6.2 mi SSW 6.9 mph - N/A   Mostly Cloudy
3:50 PM 60.8 °F - 53.6 °F 77% 29.59 in 6.2 mi WNW 13.8 mph - N/A   Mostly Cloudy
4:50 PM 60.8 °F - 51.8 °F 72% 29.62 in 6.2 mi West 11.5 mph - N/A   Mostly Cloudy
5:50 PM 59.0 °F - 50.0 °F 72% 29.62 in 6.2 mi West 15.0 mph - N/A   Overcast
6:50 PM 59.0 °F - 51.8 °F 77% 29.65 in 6.2 mi West 9.2 mph - N/A   Mostly Cloudy
7:50 PM 57.2 °F - 53.6 °F 88% 29.68 in 6.2 mi West 10.4 mph - N/A   Mostly Cloudy
8:50 PM 57.2 °F - 51.8 °F 82% 29.71 in 6.2 mi West 9.2 mph - N/A   Mostly Cloudy
9:50 PM 57.2 °F - 51.8 °F 82% 29.71 in 6.2 mi West 11.5 mph - N/A   Overcast
10:50 PM 55.4 °F - 51.8 °F 88% 29.74 in 6.2 mi WSW 4.6 mph - N/A   Mostly Cloudy
11:50 PM 55.4 °F - 51.8 °F 88% 29.77 in 6.2 mi WSW 10.4 mph - N/A   Overcast